Date,TemperatureHighF,TemperatureAvgF,TemperatureLowF,DewpointHighF,DewpointAvgF,DewpointLowF,HumidityHigh,HumidityAvg,HumidityLow,PressureMaxIn,PressureMinIn,WindSpeedMaxMPH,WindSpeedAvgMPH,GustSpeedMaxMPH,PrecipitationSumIn
2013-4-1,40.0,37.1,33.0,40.0,37.1,31.0,100,100,97,0.00,40.00,12,5,19,0.05
2013-4-2,48.0,36.7,30.0,39.0,33.7,30.0,100,90,64,0.00,40.00,7,3,16,0.01
2013-4-3,48.0,38.5,32.0,39.0,32.1,24.0,100,79,49,0.00,40.00,7,4,11,0.00
2013-4-4,49.0,40.4,34.0,27.0,24.3,23.0,66,53,38,0.00,40.00,11,8,18,0.00
2013-4-5,39.0,36.8,36.0,38.0,30.8,23.0,100,81,53,0.00,40.00,10,6,16,0.09
2013-4-6,46.0,40.8,38.0,44.0,39.7,37.0,100,96,79,0.00,40.00,14,9,31,0.11
2013-4-7,54.0,43.6,36.0,42.0,38.2,35.0,100,83,57,0.00,40.00,7,3,12,0.01
2013-4-8,44.0,39.3,34.0,42.0,37.8,34.0,100,95,80,0.00,40.00,17,7,31,0.07
2013-4-9,42.0,38.9,34.0,42.0,38.4,32.0,100,98,81,0.00,40.00,28,13,51,0.51
2013-4-10,43.0,34.6,31.0,36.0,31.9,30.0,100,91,65,0.00,40.00,10,5,18,0.03
2013-4-11,39.0,32.7,29.0,35.0,32.0,28.0,100,98,77,0.00,40.00,12,6,19,0.05
2013-4-12,41.0,35.6,32.0,37.0,33.2,29.0,100,92,77,0.00,40.00,18,11,30,0.02
2013-4-13,50.0,41.2,33.0,36.0,31.3,27.0,90,69,49,0.00,40.00,6,3,14,0.01
2013-4-14,54.0,43.0,33.0,38.0,31.9,26.0,95,67,43,0.00,40.00,7,3,16,0.00
2013-4-15,56.0,44.3,35.0,34.0,28.7,25.0,78,56,36,0.00,40.00,6,4,14,0.00
2013-4-16,42.0,36.5,34.0,36.0,33.1,29.0,100,88,73,0.00,40.00,16,5,31,0.20
2013-4-17,45.0,39.5,35.0,45.0,39.5,35.0,100,100,100,0.00,40.00,16,10,35,0.72
2013-4-18,46.0,39.0,35.0,43.0,38.0,34.0,100,96,73,0.00,40.00,5,2,13,0.04
2013-4-19,50.0,38.2,30.0,34.0,27.8,18.0,100,69,41,0.00,40.00,8,6,19,0.03
2013-4-20,48.0,38.4,29.0,27.0,20.6,15.0,76,51,32,0.00,40.00,11,6,18,0.00
2013-4-21,57.0,43.1,32.0,26.0,18.9,13.0,52,39,25,0.00,40.00,8,5,14,0.00
2013-4-22,52.0,42.1,35.0,35.0,25.0,15.0,64,52,23,0.00,40.00,7,3,11,0.00
2013-4-23,60.0,45.9,36.0,37.0,30.4,23.0,68,55,38,0.00,40.00,9,5,14,0.00
2013-4-24,44.0,40.8,37.0,43.0,39.2,30.0,100,94,58,0.00,40.00,12,6,19,0.20
2013-4-25,43.0,41.5,39.0,43.0,41.5,39.0,100,100,100,0.00,40.00,19,14,32,1.28
2013-4-26,42.0,38.6,33.0,42.0,38.6,33.0,100,100,100,0.00,40.00,24,16,38,3.46
2013-4-27,40.0,35.0,32.0,39.0,34.9,32.0,100,100,94,0.00,40.00,19,10,36,0.74
2013-4-28,35.0,33.0,32.0,35.0,33.0,31.0,100,100,100,0.00,40.00,19,8,36,0.85
2013-4-29,46.0,33.4,28.0,35.0,28.3,19.0,100,83,53,0.00,40.00,7,4,21,0.13
2013-4-30,42.0,35.4,28.0,35.0,27.9,18.0,100,75,58,0.00,40.00,11,5,18,0.01